Location: Mohawk View
(42.7837°N, 73.7885°W)
Time: 16:41:26
(UTC+00:00)

Cosmos 1633 - Pass Details

Date: 17 June 2021
Orbit: 461 x 476 km, 82.5° (Epoch: 02 August)

Event Time Altitude Azimuth Distance (km) Brightness Sun altitude
Exits shadow 07:03:17 46° 185° (S) 630 2.7 -17.6°
Maximum altitude 07:04:15 88° 96° (E) 468 2.4 -17.5°
Drops below altitude 10° 07:07:47 10° 8° (N) 1,620 6.3 -17.2°
Sets 07:09:52 0° 9° (N) 2,502 7.4 -17.0°
